[[[{"header":{"parameterUnit":"kt","parameterCategory":2,"dx":1,"dy":1,"la1":30.253999710083008,"la2":30.299108505249023,"lo1":-89.0895004272461,"lo2":-89.04439544677734,"nx":28,"ny":28,"refTime":"2022-10-14T21:00:00:Z","depth":0,"parameterNumber":1,"parameterNumberName":"U-component_of_WINDS"},"data":[-6.3809,-6.3904,-6.3873,-6.3967,-6.3955,-6.4014,-6.4025,-6.4036,-6.4037,-6.4105,-6.4139,-6.4116,-6.4105,-6.4138,-6.4173,-6.4162,-6.418,-6.4238,-6.4216,-6.3982,-6.3948,-6.3915,-6.389,-6.4243,-6.4243,-6.4462,-6.4464,-6.4466,-6.3649,-6.3638,-6.3677,-6.3694,-6.3728,-6.3654,-6.3661,-6.3695,-6.375,-6.3751,-6.378,-6.3837,-6.3878,-6.3844,-6.3878,-6.3923,-6.3889,-6.3935,-6.3931,-6.393,-6.3679,-6.3653,-6.3962,-6.3962,-6.3962,-6.3961,-6.3961,-6.3961,-6.3348,-6.3405,-6.3395,-6.3437,-6.3436,-6.3448,-6.3497,-6.3467,-6.3505,-6.3534,-6.3487,-6.3548,-6.3542,-6.3564,-6.3563,-6.3611,-6.3554,-6.3593,-6.3603,-6.3614,-6.3632,-6.3325,-6.3614,-6.3613,-6.3612,-6.3611,-6.3611,0,-6.3117,-6.3086,-6.3119,-6.3145,-6.3173,-6.3189,-6.3198,-6.3227,-6.3147,-6.3182,-6.3229,-6.3251,-6.3294,-6.3335,-6.3357,-6.3347,-6.3271,-6.3259,-6.3286,-6.331,-6.3332,-6.3324,-6.2918,-6.325,-6.3247,-6.3245,-6.3243,-6.3242,-6.2812,-6.2881,-6.2852,-6.2881,-6.2876,-6.2923,-6.2944,-6.2867,-6.2893,-6.2892,-6.2946,-6.2985,-6.3012,-6.3093,-6.3055,-6.3087,-6.305,-6.3181,-6.3054,-6.3076,-6.3054,-6.3051,-6.3059,-6.3207,-6.3212,-6.3215,-6.3218,0,-6.2644,-6.2586,-6.2682,-6.2645,-6.2638,-6.2715,-6.2683,-6.2736,-6.2698,-6.2767,-6.2778,-6.2719,-6.2766,-6.2705,-6.2745,-6.2713,-6.2843,-6.2806,-6.2846,-6.2836,-6.2948,-6.2939,-6.3319,-6.3366,-6.2998,-6.3002,-6.3005,0,-6.2361,-6.2454,-6.2363,-6.2421,-6.2522,-6.244,-6.2543,-6.2519,-6.2509,-6.2562,-6.2464,-6.2516,-6.2428,-6.2472,-6.2423,-6.2518,-6.2525,-6.2506,-6.2491,-6.2515,-6.2518,-6.2527,-6.251,-6.2454,-6.2452,-6.245,-6.2449,0,-6.2104,-6.2161,-6.2255,-6.2259,-6.2226,-6.2273,-6.2261,-6.2247,-6.2267,-6.2284,-6.2296,-6.2321,-6.2335,-6.2357,-6.2294,-6.221,-6.2407,-6.2279,-6.2387,-6.239,-6.2434,-6.2432,-6.2784,-6.2446,-6.2446,-6.2445,-6.2445,0,-6.1865,-6.1881,-6.2025,-6.1995,-6.2013,-6.2075,-6.2092,-6.213,-6.2122,-6.2094,-6.2106,-6.2032,-6.2107,-6.1985,-6.2088,-6.1998,-6.2018,-6.2005,-6.2012,-6.2015,-6.188,-6.2088,-6.2429,-6.2463,-6.2019,-6.2016,-6.2013,0,-6.1589,-6.1716,-6.1644,-6.1782,-6.1831,-6.1716,-6.1783,-6.1777,-6.1745,-6.1783,-6.1746,-6.179,-6.1685,-6.169,-6.175,-6.1714,-6.1832,-6.1696,-6.1756,-6.1759,-6.1763,-6.2075,-6.2142,-6.2361,-6.1966,-6.1971,-6.1975,0,-6.1366,-6.1321,-6.135,-6.135,-6.1327,-6.1366,-6.1443,-6.1466,-6.1496,-6.1498,-6.1561,-6.162,-6.1544,-6.1551,-6.1492,-6.1558,-6.175,-6.1466,-6.1465,-6.1522,-6.1936,-6.2,-6.2037,-6.1696,-6.1702,-6.1706,-6.1938,0,-6.1022,-6.1075,-6.1151,-6.1151,-6.1171,-6.1251,-6.118,-6.1211,-6.1152,-6.1113,-6.1203,-6.1179,-6.1203,-6.1226,-6.1167,-6.1335,-6.1297,-6.1214,-6.109,-6.1295,-6.137,-6.14,-6.0985,-6.0981,-6.0977,-6.0974,0,0,-6.0773,-6.0846,-6.0761,-6.0829,-6.0841,-6.0717,-6.081,-6.0806,-6.0802,-6.0814,-6.0744,-6.0822,-6.0805,-6.0921,-6.098,-6.0988,-6.1013,-6.0942,-6.1198,-6.1223,-6.1246,-6.1327,-6.136,-6.0968,-6.0967,-6.0966,-6.0965,0,-6.0631,-6.0614,-6.0704,-6.0697,-6.0682,-6.0635,-6.0658,-6.062,-6.0599,-6.0684,-6.058,-6.0625,-6.0687,-6.0684,-6.0691,-6.0927,-6.0846,-6.0939,-6.1091,-6.1165,-6.1195,-6.1221,-6.1307,-6.1339,-6.0956,-6.0957,-6.0957,0,-6.0399,-6.0371,-6.0406,-6.0423,-6.0411,-6.0463,-6.0315,-6.0375,-6.0413,-6.0272,-6.0358,-6.0335,-6.0322,-6.044,-6.049,-6.0427,-6.0699,-6.0598,-6.0618,-6.0622,-6.0691,-6.0727,-6.0759,-6.0338,-6.0336,-6.0334,0,0,-6.0287,-6.0334,-6.0276,-6.0386,-6.0386,-6.0317,-6.0336,-6.0277,-6.0267,-6.0263,-6.023,-6.0225,-6.0261,-6.0286,-6.0315,-6.0454,-6.0445,-6.0525,-6.0554,-6.0578,-6.0596,-6.0671,-6.0706,-6.0327,-6.0327,-6.0327,0,0,-6.0233,-6.017,-6.011,-6.0228,-6.0222,-6.0172,-6.0243,-6.0169,-6.0187,-6.0169,-6.0072,-6.0066,-6.0174,-6.0155,-6.0069,-6.027,-6.0148,-6.0167,-6.0278,-6.0314,-6.0343,-6.0345,-5.9913,0,0,0,0,0,-6.0049,-6.0177,-6.0124,-6.0132,-6.0151,-6.0203,-6.0204,-6.0126,-6.0043,-6.0101,-6.0062,-5.9972,-6.0089,-6.0012,-6.0022,-6.0118,-6.0237,-6.0253,-6.0268,-6.0444,-6.0482,-6.0515,0,0,0,0,0,0,-6.0051,-6.0062,-6.012,-6.0077,-6.008,-6.0197,-6.0038,-6.002,-6.0034,-6.0016,-5.9983,-5.9971,-5.9906,-6.0001,-6.0012,-6.0104,-5.9909,-6.0243,-6.0257,-6.0269,-6.0457,-6.0488,-6.0515,0,0,0,0,0,-6.0053,-6.0062,-6.0111,-6.0074,-6.0077,-6.0005,-6.0032,-6.0016,-6.0026,-5.9963,-5.9949,-5.9965,-5.9911,-5.9914,-6.0007,-6.0101,-5.9901,-5.9906,-6.0252,-6.0263,-6.0272,-6.0473,0,0,0,0,0,0,-6.0054,-6.0048,-6.011,-6.0108,-6.0019,-5.9997,-5.999,-6.0013,-5.997,-5.9957,-5.9941,-5.9927,-5.9916,-5.9917,-5.9921,-6.0105,-5.9895,-5.9899,-5.9902,-6.026,-6.0268,-6.0276,0,0,0,0,0,0,-6.0042,-6.0047,-6.0109,-6.0043,-6.0033,-5.999,-5.9984,-6.005,-5.9971,-5.995,-5.9937,-5.9935,-5.991,-5.9921,-5.9923,-6.0029,-5.989,-5.9894,-5.9897,-5.9899,-6.0267,-6.0274,0,0,0,0,0,0,-6.0043,-6.0047,-6.0043,-6.0035,-6.0026,-5.9998,-6.0047,-6.007,-5.9915,-5.9954,-5.9898,-5.9891,-5.9916,-5.9917,-5.9925,-6.0031,-6.003,-5.989,-5.9893,-5.9895,-5.9896,0,0,0,0,0,0,0,-6.0043,-6.0036,-6.0122,-6.0029,-6.002,-6.009,-6.0089,-6.0089,-5.9913,-5.9907,-5.99,-5.9894,-5.9866,-5.987,-5.9875,-6.0032,0,0,-5.9889,-5.9891,0,0,0,0,0,0,0,0,-6.0033,-6.0035,-6.0122,-6.0121,-6.0121,-6.009,-6.0089,-6.0089,-5.9912,-5.9907,-5.9901,-5.9897,-5.9867,-5.9871,-5.9874,0,0,0,0,0,0,0,0,0,0,0,0,0,0,0,-6.0122,-6.0121,0,-6.009,-6.0089,-6.0089,-5.9911,-5.9907,-5.9903,-5.9899,-5.9868,-5.9871,-5.9874,0,0,0,0,0,0,0,0,0,0,0,0,0,0,0,0,0,0,0,0,0,0,0,0,0,0,0,0,0,0,0,0,0,0,0,0,0,0,0,0,0,0,0,0,0,0,0,0,0,0,0,0,0,0,0,0,0,0,0,0,0,0,0,0,0,0,0,0,0]}],[{"header":{"parameterUnit":"kt","parameterCategory":2,"dx":1,"dy":1,"la1":30.253999710083008,"la2":30.299108505249023,"lo1":-89.0895004272461,"lo2":-89.04439544677734,"nx":28,"ny":28,"refTime":"2022-10-14T21:00:00:Z","depth":0,"parameterNumber":2,"parameterNumberName":"V-component_of_WINDS"},"data":[0.1676,0.1638,0.1624,0.1574,0.1553,0.1517,0.15,0.1476,0.1453,0.141,0.1382,0.1364,0.1335,0.1299,0.1269,0.1262,0.125,0.1249,0.124,0.1259,0.126,0.1262,0.127,0.1246,0.1246,0.1223,0.1222,0.1222,0.1696,0.1675,0.1644,0.1604,0.1578,0.1571,0.1539,0.1517,0.1485,0.1457,0.1428,0.1388,0.1354,0.1325,0.1291,0.1274,0.1268,0.1266,0.1266,0.1262,0.1282,0.129,0.1271,0.1271,0.1271,0.1271,0.1271,0.1271,0.173,0.1707,0.1674,0.164,0.1615,0.1589,0.1565,0.1542,0.1511,0.1472,0.146,0.1423,0.1391,0.134,0.1319,0.1291,0.1291,0.1283,0.1281,0.1279,0.1281,0.132,0.1284,0.1284,0.1284,0.1284,0.1284,0,0.175,0.1739,0.1707,0.1671,0.1645,0.1615,0.1586,0.1571,0.154,0.1516,0.148,0.1457,0.1411,0.1375,0.1338,0.1317,0.1306,0.1303,0.1297,0.1303,0.1315,0.1309,0.1343,0.1303,0.1303,0.1304,0.1304,0.1304,0.1783,0.1758,0.1714,0.1694,0.1673,0.164,0.1618,0.1593,0.157,0.153,0.1511,0.1474,0.1444,0.1388,0.136,0.1325,0.1319,0.1306,0.1313,0.1322,0.132,0.1322,0.132,0.1305,0.1305,0.1304,0.1304,0,0.1804,0.1778,0.1732,0.1691,0.1679,0.1654,0.1619,0.1595,0.1573,0.1538,0.1528,0.1494,0.1459,0.1432,0.1385,0.1372,0.1334,0.1328,0.1346,0.1343,0.133,0.1332,0.1287,0.128,0.1304,0.1304,0.1303,0,0.1822,0.1789,0.1751,0.1726,0.1689,0.1664,0.1628,0.1606,0.1576,0.1547,0.153,0.1503,0.1472,0.1443,0.1423,0.1386,0.1377,0.1365,0.136,0.1367,0.1368,0.1353,0.1355,0.1349,0.1349,0.135,0.135,0,0.1857,0.1797,0.1756,0.1738,0.1688,0.167,0.1649,0.1614,0.1591,0.1557,0.1543,0.1505,0.1484,0.1456,0.1432,0.1438,0.1386,0.1389,0.1373,0.1374,0.1362,0.1363,0.1331,0.135,0.135,0.135,0.135,0,0.1867,0.1832,0.1776,0.1735,0.172,0.1693,0.1654,0.1624,0.1588,0.1574,0.1547,0.1531,0.1495,0.1501,0.1451,0.1467,0.1448,0.1433,0.1431,0.1426,0.1433,0.1419,0.1391,0.1387,0.1423,0.1424,0.1424,0,0.1916,0.1851,0.1827,0.1774,0.174,0.1723,0.1692,0.166,0.1638,0.1607,0.1582,0.1546,0.1544,0.1529,0.1508,0.1481,0.1461,0.1483,0.144,0.1439,0.1451,0.1425,0.1427,0.1401,0.1431,0.1431,0.143,0,0.1949,0.1887,0.1879,0.1857,0.1809,0.1779,0.1744,0.1701,0.1682,0.1646,0.1616,0.1564,0.1561,0.1535,0.1517,0.1497,0.1474,0.1495,0.1494,0.1494,0.1432,0.1435,0.1431,0.1467,0.1466,0.1466,0.1436,0,0.1973,0.1935,0.1911,0.1861,0.1833,0.1797,0.1766,0.1742,0.1728,0.1704,0.1658,0.1622,0.1578,0.1564,0.1549,0.1511,0.1513,0.1509,0.1511,0.1494,0.1484,0.1479,0.153,0.153,0.153,0.153,0,0,0.2026,0.1971,0.1944,0.1906,0.1882,0.1862,0.1826,0.1799,0.1745,0.1729,0.173,0.165,0.162,0.1568,0.156,0.1541,0.1532,0.1538,0.1502,0.15,0.1497,0.1486,0.1482,0.153,0.153,0.153,0.1529,0,0.2028,0.1996,0.1961,0.1932,0.1888,0.1864,0.1855,0.1807,0.179,0.1743,0.1727,0.1695,0.163,0.1601,0.1578,0.1544,0.1533,0.1533,0.1526,0.1503,0.15,0.1497,0.1486,0.1483,0.1529,0.1529,0.1529,0,0.2055,0.202,0.1999,0.1939,0.1909,0.1873,0.1869,0.183,0.1804,0.1781,0.1735,0.171,0.1667,0.1621,0.1599,0.1599,0.1536,0.1548,0.1548,0.1545,0.1521,0.1517,0.1514,0.1553,0.1553,0.1554,0,0,0.2061,0.2024,0.1977,0.1936,0.1919,0.1882,0.1859,0.1841,0.1803,0.1787,0.1754,0.1718,0.168,0.1655,0.1618,0.1571,0.156,0.1553,0.1552,0.1551,0.1547,0.1523,0.152,0.1554,0.1554,0.1555,0,0,0.2063,0.2006,0.1997,0.1946,0.1911,0.1861,0.1838,0.1826,0.1788,0.1788,0.1756,0.1745,0.17,0.1676,0.1691,0.1618,0.1621,0.1617,0.1635,0.1633,0.1632,0.1639,0.168,0,0,0,0,0,0.2047,0.2013,0.2006,0.1993,0.1915,0.1865,0.1855,0.1827,0.1831,0.1814,0.1785,0.1773,0.1678,0.1691,0.1678,0.166,0.1565,0.1563,0.1562,0.1574,0.1573,0.1571,0,0,0,0,0,0,0.2041,0.2024,0.2007,0.1956,0.1938,0.1866,0.1866,0.1858,0.1832,0.1831,0.1779,0.1771,0.1747,0.1695,0.1684,0.1668,0.1683,0.1564,0.1563,0.1561,0.1574,0.1572,0.1571,0,0,0,0,0,0.2036,0.2023,0.1906,0.1956,0.1941,0.1896,0.1867,0.186,0.184,0.1793,0.1785,0.1821,0.1747,0.1736,0.1688,0.1674,0.1691,0.1687,0.1563,0.1562,0.1561,0.1573,0,0,0,0,0,0,0.2033,0.2016,0.1902,0.1897,0.1966,0.19,0.1888,0.1862,0.1803,0.1795,0.1834,0.1833,0.1747,0.1738,0.1729,0.1678,0.1697,0.1693,0.169,0.1562,0.1561,0.1561,0,0,0,0,0,0,0.2023,0.2012,0.1899,0.1913,0.1909,0.1903,0.1893,0.1848,0.1803,0.1847,0.1845,0.1834,0.176,0.174,0.1733,0.1664,0.1702,0.1698,0.1695,0.1693,0.1562,0.1561,0,0,0,0,0,0,0.2018,0.2008,0.1915,0.1911,0.1908,0.1842,0.1863,0.1785,0.1815,0.185,0.1817,0.1818,0.1762,0.1754,0.1735,0.1669,0.1665,0.1702,0.1699,0.1697,0.1696,0,0,0,0,0,0,0,0.2014,0.2087,0.1936,0.191,0.1906,0.1844,0.1843,0.1841,0.1815,0.1816,0.1817,0.1817,0.1725,0.172,0.1716,0.1673,0,0,0.1702,0.17,0,0,0,0,0,0,0,0,0.2091,0.2088,0.1936,0.1935,0.1934,0.1844,0.1843,0.1842,0.1815,0.1816,0.1816,0.1817,0.1723,0.172,0.1716,0,0,0,0,0,0,0,0,0,0,0,0,0,0,0,0.1936,0.1935,0,0.1844,0.1843,0.1842,0.1815,0.1816,0.1816,0.1817,0.1722,0.1719,0.1717,0,0,0,0,0,0,0,0,0,0,0,0,0,0,0,0,0,0,0,0,0,0,0,0,0,0,0,0,0,0,0,0,0,0,0,0,0,0,0,0,0,0,0,0,0,0,0,0,0,0,0,0,0,0,0,0,0,0,0,0,0,0,0,0,0,0,0,0,0]}]]]